STARLINK-31862, 59786

Orbit data source: Space-Track

STARLINK-31862, 59786 is a payload satellite owned by SpaceX/Seattle (US) in LEO that was launched on Sat, 18 May 2024 UTC via an FALCON 9 launch vehicle from the Air Force Eastern Test Range (AFETR). Payload-class satellites include a variety of spacecraft equipped with specific instruments for various scientific and technological missions. These include communications satellites like Starlink; space stations such as the ISS; scientific satellites like the Hubble; Earth observation satellites from companies like Planet Labs, Umbra, and HawkEye 360; GPS; miniature CubeSats for education and research; and military/defense satellites.

Loading next visibility...
Identifier
59786, 2024-093E
Orbit
LEO
Country
Flag of USUS
Related business
Manufacturer
SpaceX/Seattle
Mission
Operational Commercial Communications
Bus & Motor
STARLINK V2M, Unknown motor
Mass
730 kg wet, ~700 kg dry
Launch date (UTC)
2024-05-18 (1 year ago)
Launch vehicle
FALCON 9
Launch site
Air Force Eastern Test Range (AFETR)
Object type
Payload
Rocket body
Debris
Shape & HBR
Box + 2 Pan, 17.7 m
Radar Cross Section
33.884 m², Large (>1 m²)

Expand to show TLE details & history
Last TLE update: 1 day ago

TLE from 1 day ago
0 STARLINK-31862
1 59786U 24093E   25305.82225643 -.00000446  00000-0 -66577-5 0  9992
2 59786  43.0046 210.6969 0002509 299.8230  60.2372 15.27568803 83147
Epoch: 2025-11-01T19:44Z
TLE epoch observation values (Epoch: 2025-11-01T19:44:02.955Z)
Latitude
-0.00003°
Longitude
-126.66227°
Altitude
482.004 km
Speed
7.627 km/s
True Right ascension
14h 02m 47s
True Declination
0° 00' 00"
Sunlit
Object was in daylight at epoch
Visualization orbit readout
Latitude
Unknown
Longitude
Unknown
Altitude
Unknown
Speed
Unknown
Apparent Right ascension
Unknown
Apparent Declination
Unknown
Sunlit
N/A
Visualization observer readout
Local Sidereal Time
23:58:15
Azimuth
Unknown
Elevation
Unknown
Doppler factor
Unknown
Orbital elements
Apogee altitude
486.749 km
Perigee altitude
483.305 km
Semi-major axis
6,863.164 km
Eccentricity
0.00025
Inclination
43.0046°
RAAN
210.6969°
Arg. of periapsis
299.823°
True anomaly
60.26216°
Mean anomaly
60.2372°
Eccentric anomaly
60.24968°
Mean motion
3.8173 °/min
Orbital period
94.31 mins
BSTAR
-0.0000066577
Loading maneuver chart data...
Computing Atmospheric mass density...
Loading historical data...
Loading historical data...
Loading historical data...
Loading historical data...
Loading historical data...
Loading historical data...
Loading historical data...

Documentation

Showing up to 5 results
|